FW3934 Weather Reports


Display with metric or nautical units.
time (UTC)temp
F
wind
direction
speed
MPH
gust
MPH
rain 1hr
in
rain 24hr
in
rain mn
in
humidity
%
barometer
mb
20260503215516 60 159 2.0 6.0 0.00 0.00 0.00 61 1013.4
20260503215008 60 175 2.0 6.0 0.00 0.00 0.00 61 1013.5
20260503214502 60 13 2.0 10.0 0.00 0.00 0.00 61 1013.2
20260503213458 61 234 2.0 4.0 0.00 0.00 0.00 60 1013.6
20260503212452 61 183 2.0 4.0 0.00 0.00 0.00 60 1014.1
20260503211955 62 184 2.0 8.0 0.00 0.00 0.00 59 1014.2
20260503205948 63 228 2.0 7.0 0.00 0.00 0.00 53 1014.3
20260503205447 63 209 2.0 5.0 0.00 0.00 0.00 55 1014.2
20260503204943 64 165 2.0 9.0 0.00 0.00 0.00 56 1014.3
20260503204436 64 256 3.0 9.0 0.00 0.00 0.00 52 1014.6
20260503203923 64 165 3.0 9.0 0.00 0.00 0.00 51 1014.7
20260503203418 64 155 3.0 9.0 0.00 0.00 0.00 53 1014.9
20260503202915 64 240 3.0 10.0 0.00 0.00 0.00 51 1015.1
20260503202416 64 226 3.0 10.0 0.00 0.00 0.00 53 1015.3
20260503201913 64 211 4.0 9.0 0.00 0.00 0.00 51 1015.3
20260503201411 64 208 3.0 9.0 0.00 0.00 0.00 48 1015.6
20260503200909 64 223 2.0 8.0 0.00 0.00 0.00 53 1015.8
20260503200405 64 189 3.0 8.0 0.00 0.00 0.00 52 1015.9
20260503195906 64 194 3.0 8.0 0.00 0.00 0.00 56 1016.3
20260503195405 64 235 3.0 8.0 0.00 0.00 0.00 53 1016.7
20260503193902 64 101 3.0 9.0 0.00 0.00 0.00 49 1016.8
20260503193403 64 244 3.0 8.0 0.00 0.00 0.00 54 1016.9
20260503192901 64 187 3.0 10.0 0.00 0.00 0.00 57 1016.8
20260503192400 64 209 3.0 10.0 0.00 0.00 0.00 50 1016.9
20260503191859 64 221 3.0 8.0 0.00 0.00 0.00 53 1017.0
20260503191357 64 200 4.0 8.0 0.00 0.00 0.00 49 1017.0
20260503190350 65 223 3.0 8.0 0.00 0.00 0.00 53 1017.2
20260503185852 65 217 3.0 7.0 0.00 0.00 0.00 53 1017.0
20260503185353 65 200 4.0 10.0 0.00 0.00 0.00 48 1017.1
20260503184843 65 227 3.0 10.0 0.00 0.00 0.00 51 1017.2
20260503184338 65 223 3.0 9.0 0.00 0.00 0.00 54 1017.2
20260503183838 65 184 3.0 9.0 0.00 0.00 0.00 54 1017.2
20260503183336 64 86 3.0 10.0 0.00 0.00 0.00 54 1017.2
20260503182838 64 188 4.0 10.0 0.00 0.00 0.00 51 1017.4
20260503181833 64 175 4.0 8.0 0.00 0.00 0.00 54 1017.4
20260503181327 64 189 4.0 9.0 0.00 0.00 0.00 53 1017.7
20260503180825 64 188 4.0 9.0 0.00 0.00 0.00 53 1017.9
20260503180325 63 243 4.0 9.0 0.00 0.00 0.00 51 1017.9
20260503175826 63 237 3.0 7.0 0.00 0.00 0.00 54 1018.0
20260503175324 63 226 3.0 9.0 0.00 0.00 0.00 51 1018.3
20260503174829 63 242 4.0 13.0 0.00 0.00 0.00 51 1018.4
20260503174324 64 230 3.0 13.0 0.00 0.00 0.00 53 1018.5
20260503173821 63 188 2.0 8.0 0.00 0.00 0.00 55 1018.6
20260503173322 63 242 4.0 10.0 0.00 0.00 0.00 59 1018.7
20260503172822 63 226 4.0 10.0 0.00 0.00 0.00 55 1018.8
20260503172318 63 231 3.0 8.0 0.00 0.00 0.00 59 1018.8
20260503171822 62 76 3.0 8.0 0.00 0.00 0.00 58 1018.9
20260503170819 62 225 3.0 9.0 0.00 0.00 0.00 60 1019.0
20260503170314 62 246 4.0 10.0 0.00 0.00 0.00 59 1019.0
20260503150235 58 67 3.0 7.0 0.00 0.00 0.00 62 1020.5
20260503140208 53 208 3.0 7.0 0.00 0.00 0.00 63 1020.5
20260503130634 45 202 1.0 4.0 0.00 0.00 0.00 80 1020.1
20260503100214 33 304 0.0 0.0 0.00 0.00 0.00 91 1018.7
20260503081408 33 304 0.0 0.0 0.00 0.00 0.00 88 1018.8
20260503080903 33 304 0.0 0.0 0.00 0.00 0.00 88 1018.7
20260503080354 33 304 0.0 0.0 0.00 0.00 0.00 88 1018.8
20260503072754 34 304 0.0 0.0 0.00 0.00 0.00 88 1018.7
20260503072243 34 304 0.0 0.0 0.00 0.00 0.00 88 1018.9
20260503071734 34 304 0.0 0.0 0.00 0.00 0.00 88 1018.9
20260503071203 34 304 0.0 0.0 0.00 0.00 0.00 88 1018.9
20260503070705 34 304 0.0 0.0 0.00 0.00 0.00 88 1019.0
20260503070155 34 304 0.0 0.0 0.00 0.00 0.00 88 1019.0
20260503054825 35 304 0.0 0.0 0.00 0.00 0.00 86 1019.4
20260503054304 35 304 0.0 0.0 0.00 0.00 0.00 86 1019.4
20260503053800 36 304 0.0 0.0 0.00 0.00 0.00 86 1019.4
20260503053259 36 304 0.0 0.0 0.00 0.00 0.00 86 1019.4
20260503052710 36 304 0.0 0.0 0.00 0.00 0.00 86 1019.4
20260503052206 36 304 0.0 0.0 0.00 0.00 0.00 86 1019.2
20260503051655 36 304 0.0 0.0 0.00 0.00 0.00 86 1019.4
20260503051118 36 304 0.0 0.0 0.00 0.00 0.00 86 1019.4
20260503050558 36 304 0.0 0.0 0.00 0.00 0.00 86 1019.5
20260503045529 37 304 0.0 0.0 0.00 0.00 0.00 85 1019.6
20260503045006 37 304 0.0 0.0 0.00 0.00 0.00 85 1019.6
20260503044503 37 304 0.0 0.0 0.00 0.00 0.00 85 1019.7
20260503044000 37 304 0.0 0.0 0.00 0.00 0.00 84 1019.6
20260503043453 37 304 0.0 0.0 0.00 0.00 0.00 84 1019.6
20260503042940 37 304 0.0 0.0 0.00 0.00 0.00 84 1019.5
20260503042437 37 304 0.0 0.0 0.00 0.00 0.00 84 1019.6
20260503041925 37 304 0.0 0.0 0.00 0.00 0.00 83 1019.6
20260503041416 38 304 0.0 0.0 0.00 0.00 0.00 82 1019.7
20260503040859 38 304 0.0 0.0 0.00 0.00 0.00 82 1019.7
20260503040356 38 304 0.0 0.0 0.00 0.00 0.00 82 1019.8
20260503035854 38 304 0.0 0.0 0.00 0.00 0.00 81 1019.8
20260503035338 38 304 0.0 0.0 0.00 0.00 0.00 81 1019.8
20260503034820 38 304 0.0 0.0 0.00 0.00 0.00 81 1019.9
20260503034308 39 304 0.0 0.0 0.00 0.00 0.00 80 1019.8
20260503033809 39 304 0.0 0.0 0.00 0.00 0.00 80 1019.9
20260503033308 39 304 0.0 0.0 0.00 0.00 0.00 79 1019.9
20260503032808 39 304 0.0 0.0 0.00 0.00 0.00 78 1019.9
20260503032301 39 304 0.0 0.0 0.00 0.00 0.00 78 1019.8
20260503030709 40 304 0.0 0.0 0.00 0.00 0.00 78 1019.8
20260503030158 40 304 0.0 0.0 0.00 0.00 0.00 78 1020.0
20260503025644 41 304 0.0 0.0 0.00 0.00 0.00 77 1020.0
20260503025139 41 304 0.0 0.0 0.00 0.00 0.00 77 1019.9
20260503024609 41 304 0.0 0.0 0.00 0.00 0.00 76 1019.9
20260503024104 41 304 0.0 0.0 0.00 0.00 0.00 75 1019.9
20260503023554 41 304 0.0 0.0 0.00 0.00 0.00 74 1020.0
20260503023051 42 304 0.0 0.0 0.00 0.00 0.00 74 1020.0
20260503022527 42 304 0.0 0.0 0.00 0.00 0.00 73 1020.0
20260503021949 42 304 0.0 0.0 0.00 0.00 0.00 72 1020.0
20260503021442 42 304 0.0 0.0 0.00 0.00 0.00 71 1019.9
20260503020931 43 304 0.0 0.0 0.00 0.00 0.00 71 1019.9
20260503020357 43 304 0.0 0.0 0.00 0.00 0.00 71 1019.9
20260503015827 44 304 0.0 0.0 0.00 0.00 0.00 70 1020.0
20260503015326 44 304 0.0 0.0 0.00 0.00 0.00 68 1019.8
20260503013808 45 304 0.0 0.0 0.00 0.00 0.00 66 1019.8
20260503013310 46 304 0.0 0.0 0.00 0.00 0.00 65 1019.7
20260503012801 46 304 0.0 0.0 0.00 0.00 0.00 64 1019.7
20260503012252 46 304 0.0 0.0 0.00 0.00 0.00 63 1019.6
20260503011715 47 304 0.0 0.0 0.00 0.00 0.00 62 1019.6
20260503011215 47 304 0.0 0.0 0.00 0.00 0.00 63 1019.7
20260503010713 47 304 0.0 0.0 0.00 0.00 0.00 60 1019.6
20260503010202 48 304 0.0 0.0 0.00 0.00 0.00 58 1019.6
20260503005700 48 304 0.0 0.0 0.00 0.00 0.00 57 1019.5
20260503005153 48 304 0.0 0.0 0.00 0.00 0.00 55 1019.6
20260503004635 49 304 0.0 0.0 0.00 0.00 0.00 55 1019.6
20260503004128 49 304 0.0 0.0 0.00 0.00 0.00 55 1019.6
20260503003621 49 304 0.0 0.0 0.00 0.00 0.00 55 1019.7
20260503003108 50 304 0.0 0.0 0.00 0.00 0.00 55 1019.7
20260503002605 50 304 0.0 0.0 0.00 0.00 0.00 56 1019.7
20260503002055 51 304 0.0 3.0 0.00 0.00 0.00 55 1019.7
20260503001559 51 304 0.0 3.0 0.00 0.00 0.00 52 1019.6
20260503000530 52 304 0.0 0.0 0.00 0.00 0.00 53 1019.6
20260503000018 52 304 0.0 2.0 0.00 0.00 0.00 53 1019.6
20260502235515 52 304 1.0 3.0 0.00 0.00 0.00 50 1019.5
20260502235010 52 338 1.0 3.0 0.00 0.00 0.00 48 1019.6
20260502234505 52 296 1.0 3.0 0.00 0.00 0.00 46 1019.6
20260502234000 53 327 1.0 3.0 0.00 0.00 0.00 46 1019.6
20260502233458 53 339 1.0 5.0 0.00 0.00 0.00 48 1019.5
20260502233000 53 339 1.0 5.0 0.00 0.00 0.00 45 1019.5
20260502232459 53 323 1.0 3.0 0.00 0.00 0.00 47 1019.4
20260502231957 53 264 1.0 3.0 0.00 0.00 0.00 47 1019.6
20260502231441 53 264 2.0 4.0 0.00 0.00 0.00 44 1019.5
20260502230938 54 310 1.0 4.0 0.00 0.00 0.00 45 1019.7
20260502230440 54 286 2.0 6.0 0.00 0.00 0.00 45 1019.7
20260502225916 54 286 2.0 7.0 0.00 0.00 0.00 43 1019.7
20260502225415 54 257 1.0 7.0 0.00 0.00 0.00 45 1019.6
20260502224913 54 304 1.0 4.0 0.00 0.00 0.00 49 1019.6
20260502224406 54 304 1.0 4.0 0.00 0.00 0.00 44 1019.7
20260502223859 54 328 2.0 4.0 0.00 0.00 0.00 46 1019.7
20260502223402 54 279 2.0 4.0 0.00 0.00 0.00 45 1019.7
20260502222851 54 294 2.0 5.0 0.00 0.00 0.00 44 1019.8
20260502222351 54 277 1.0 5.0 0.00 0.00 0.00 45 1019.7
20260502221855 54 22 1.0 4.0 0.00 0.00 0.00 46 1019.8
20260502221351 54 334 2.0 4.0 0.00 0.00 0.00 43 1019.7
20260502220851 55 306 2.0 3.0 0.00 0.00 0.00 44 1019.7
20260502215846 56 332 2.0 8.0 0.00 0.00 0.00 41 1019.7